Time,TemperatureF,DewpointF,PressureIn,WindDirection,WindDirectionDegrees,WindSpeedMPH,WindSpeedGustMPH,Humidity,HourlyPrecipIn,Conditions,Clouds,dailyrainin,SoftwareType,DateUTC
2013-09-15 00:13:00,57.0,51.0,29.87,NE,40,2.0,7.0,80,0.02,,,0.61,,2013-09-15 05:13:00,
2013-09-15 00:22:00,57.0,51.0,29.88,NNE,17,2.0,7.0,80,0.01,,,0.61,,2013-09-15 05:22:00,
2013-09-15 00:42:00,57.0,51.0,29.88,NE,39,3.0,8.0,81,0.00,,,0.61,,2013-09-15 05:42:00,
2013-09-15 00:52:00,57.0,51.0,29.88,NE,51,4.0,12.0,81,0.00,,,0.61,,2013-09-15 05:52:00,
2013-09-15 01:12:00,57.0,51.0,29.88,North,5,3.0,9.0,81,0.00,,,0.61,,2013-09-15 06:12:00,
2013-09-15 01:21:00,57.0,51.0,29.89,ENE,74,4.0,11.0,81,0.00,,,0.61,,2013-09-15 06:21:00,
2013-09-15 01:42:00,57.0,51.0,29.89,NNE,30,2.0,10.0,81,0.00,,,0.61,,2013-09-15 06:42:00,
2013-09-15 01:52:00,56.0,50.0,29.90,NNW,348,2.0,7.0,81,0.00,,,0.61,,2013-09-15 06:52:00,
2013-09-15 02:11:00,56.0,50.0,29.91,North,5,2.0,10.0,81,0.00,,,0.61,,2013-09-15 07:11:00,
2013-09-15 02:22:00,56.0,50.0,29.91,NE,42,1.0,6.0,81,0.00,,,0.61,,2013-09-15 07:22:00,
2013-09-15 02:42:00,56.0,50.0,29.92,NNW,328,2.0,10.0,81,0.00,,,0.61,,2013-09-15 07:42:00,
2013-09-15 02:52:00,56.0,50.0,29.93,NW,322,3.0,10.0,81,0.00,,,0.61,,2013-09-15 07:52:00,
2013-09-15 03:11:00,56.0,50.0,29.93,NNE,12,1.0,10.0,81,0.00,,,0.61,,2013-09-15 08:11:00,
2013-09-15 03:22:00,56.0,50.0,29.94,North,360,2.0,9.0,81,0.00,,,0.61,,2013-09-15 08:22:00,
2013-09-15 03:43:00,56.0,50.0,29.95,NNW,341,1.0,6.0,80,0.00,,,0.61,,2013-09-15 08:43:00,
2013-09-15 03:52:00,56.0,50.0,29.95,North,350,3.0,9.0,80,0.00,,,0.61,,2013-09-15 08:52:00,
2013-09-15 04:12:00,55.0,49.0,29.96,NW,315,2.0,9.0,80,0.00,,,0.61,,2013-09-15 09:12:00,
2013-09-15 04:22:00,55.0,49.0,29.97,NE,38,3.0,8.0,80,0.00,,,0.61,,2013-09-15 09:22:00,
2013-09-15 04:43:00,55.0,49.0,29.97,NNE,30,3.0,8.0,80,0.00,,,0.61,,2013-09-15 09:43:00,
2013-09-15 04:53:00,55.0,49.0,29.98,NNW,347,3.0,10.0,80,0.00,,,0.61,,2013-09-15 09:53:00,
2013-09-15 05:13:00,55.0,49.0,29.98,WNW,302,1.0,9.0,80,0.00,,,0.61,,2013-09-15 10:13:00,
2013-09-15 05:23:00,55.0,49.0,29.98,NNW,327,1.0,5.0,80,0.00,,,0.61,,2013-09-15 10:23:00,
2013-09-15 05:43:00,55.0,49.0,29.99,NNE,23,1.0,5.0,80,0.00,,,0.61,,2013-09-15 10:43:00,
2013-09-15 05:52:00,55.0,49.0,30.00,NNW,344,2.0,7.0,80,0.00,,,0.61,,2013-09-15 10:52:00,
2013-09-15 06:12:00,55.0,49.0,30.01,NNW,331,1.0,6.0,80,0.00,,,0.61,,2013-09-15 11:12:00,
2013-09-15 06:22:00,55.0,49.0,30.01,NNW,336,2.0,7.0,80,0.00,,,0.61,,2013-09-15 11:22:00,
2013-09-15 06:42:00,56.0,50.0,30.02,WNW,294,3.0,9.0,80,0.00,,,0.61,,2013-09-15 11:42:00,
2013-09-15 06:52:00,56.0,50.0,30.03,NW,310,1.0,9.0,80,0.00,,,0.61,,2013-09-15 11:52:00,
2013-09-15 07:12:00,56.0,50.0,30.03,NNE,24,2.0,9.0,80,0.00,,,0.61,,2013-09-15 12:12:00,
2013-09-15 07:21:00,56.0,50.0,30.04,NE,49,1.0,4.0,80,0.00,,,0.61,,2013-09-15 12:21:00,
2013-09-15 07:52:00,55.0,49.0,30.06,NNW,346,3.0,13.0,80,0.00,,,0.61,,2013-09-15 12:52:00,
2013-09-15 08:11:00,54.0,48.0,30.07,NW,306,3.0,9.0,80,0.01,,,0.62,,2013-09-15 13:11:00,
2013-09-15 08:21:00,54.0,48.0,30.08,NW,313,3.0,9.0,80,0.01,,,0.62,,2013-09-15 13:21:00,
2013-09-15 08:52:00,54.0,48.0,30.09,NNW,345,4.0,9.0,80,0.01,,,0.62,,2013-09-15 13:52:00,
2013-09-15 09:12:00,54.0,48.0,30.10,NNW,327,3.0,11.0,80,0.00,,,0.62,,2013-09-15 14:12:00,
2013-09-15 09:22:00,54.0,48.0,30.11,WNW,298,5.0,11.0,80,0.00,,,0.62,,2013-09-15 14:22:00,
2013-09-15 14:22:00,57.0,48.0,30.22,NNE,13,1.0,11.0,71,0.00,,,0.20,,2013-09-15 19:22:00,
2013-09-15 14:52:00,60.0,49.0,30.22,WSW,258,4.0,9.0,67,0.00,,,0.20,,2013-09-15 19:52:00,
2013-09-15 15:11:00,61.0,48.0,30.22,WNW,284,2.0,9.0,63,0.00,,,0.20,,2013-09-15 20:11:00,
2013-09-15 15:22:00,61.0,48.0,30.22,WNW,282,3.0,10.0,63,0.00,,,0.20,,2013-09-15 20:22:00,
2013-09-15 15:42:00,61.0,48.0,30.22,WNW,301,5.0,13.0,62,0.00,,,0.20,,2013-09-15 20:42:00,
2013-09-15 15:53:00,62.0,47.0,30.22,NE,45,5.0,13.0,59,0.00,,,0.20,,2013-09-15 20:53:00,
2013-09-15 16:11:00,62.0,48.0,30.22,West,264,5.0,10.0,60,0.00,,,0.20,,2013-09-15 21:11:00,
2013-09-15 16:21:00,62.0,47.0,30.22,West,266,5.0,12.0,58,0.00,,,0.20,,2013-09-15 21:21:00,
2013-09-15 16:44:00,63.0,47.0,30.23,West,265,4.0,10.0,56,0.00,,,0.20,,2013-09-15 21:44:00,
2013-09-15 16:54:00,63.0,48.0,30.22,NW,306,3.0,7.0,57,0.00,,,0.20,,2013-09-15 21:54:00,
2013-09-15 17:14:00,63.0,48.0,30.23,West,279,4.0,12.0,57,0.00,,,0.20,,2013-09-15 22:14:00,
2013-09-15 17:23:00,63.0,48.0,30.23,West,272,3.0,11.0,57,0.00,,,0.20,,2013-09-15 22:23:00,
2013-09-15 17:44:00,63.0,47.0,30.23,WSW,238,4.0,9.0,55,0.00,,,0.20,,2013-09-15 22:44:00,
2013-09-15 17:53:00,63.0,47.0,30.23,WNW,285,2.0,9.0,55,0.00,,,0.20,,2013-09-15 22:53:00,
2013-09-15 18:12:00,63.0,46.0,30.23,West,265,3.0,9.0,53,0.00,,,0.20,,2013-09-15 23:12:00,
2013-09-15 18:22:00,62.0,45.0,30.23,NNW,346,4.0,10.0,53,0.00,,,0.20,,2013-09-15 23:22:00,
2013-09-15 18:33:00,62.0,45.0,30.23,NNW,346,4.0,10.0,53,0.00,,,0.20,,2013-09-15 23:33:00,
2013-09-15 18:42:00,62.0,45.0,30.23,NNW,346,4.0,10.0,53,0.00,,,0.20,,2013-09-15 23:42:00,
2013-09-15 18:53:00,62.0,46.0,30.24,WNW,287,1.0,6.0,56,0.00,,,0.20,,2013-09-15 23:53:00,
2013-09-15 19:11:00,61.0,44.0,30.24,North,360,3.0,7.0,54,0.00,,,0.20,,2013-09-16 00:11:00,
2013-09-15 19:22:00,60.0,45.0,30.25,NNW,340,1.0,5.0,57,0.00,,,0.20,,2013-09-16 00:22:00,
2013-09-15 19:42:00,59.0,45.0,30.25,NW,318,0.0,4.0,60,0.00,,,0.20,,2013-09-16 00:42:00,
2013-09-15 19:52:00,58.0,45.0,30.25,NW,320,0.0,4.0,63,0.00,,,0.20,,2013-09-16 00:52:00,
2013-09-15 20:12:00,57.0,45.0,30.26,NW,321,0.0,3.0,63,0.00,,,0.20,,2013-09-16 01:12:00,
2013-09-15 20:21:00,56.0,45.0,30.26,WNW,292,0.0,4.0,66,0.00,,,0.20,,2013-09-16 01:21:00,
2013-09-15 20:42:00,54.0,44.0,30.27,WNW,292,0.0,2.0,68,0.00,,,0.20,,2013-09-16 01:42:00,
2013-09-15 20:52:00,53.0,44.0,30.27,WNW,291,0.0,3.0,71,0.00,,,0.20,,2013-09-16 01:52:00,
2013-09-15 21:12:00,52.0,44.0,30.27,WNW,288,0.0,3.0,73,0.00,,,0.20,,2013-09-16 02:12:00,
2013-09-15 21:22:00,52.0,44.0,30.27,WNW,288,0.0,2.0,74,0.00,,,0.20,,2013-09-16 02:22:00,
2013-09-15 21:42:00,51.0,43.0,30.28,NE,55,0.0,3.0,73,0.00,,,0.20,,2013-09-16 02:42:00,
2013-09-15 21:52:00,51.0,43.0,30.28,NE,55,0.0,1.0,75,0.00,,,0.13,,2013-09-16 02:52:00,
2013-09-15 22:11:00,51.0,43.0,30.28,NNE,19,0.0,1.0,73,0.00,,,0.13,,2013-09-16 03:11:00,
2013-09-15 22:22:00,51.0,43.0,30.28,NNE,19,0.0,1.0,74,0.00,,,0.13,,2013-09-16 03:22:00,
2013-09-15 22:45:00,50.0,42.0,30.29,NNE,19,0.0,2.0,75,0.00,,,0.13,,2013-09-16 03:45:00,
2013-09-15 22:55:00,50.0,43.0,30.29,NNE,19,0.0,0.0,77,0.00,,,0.04,,2013-09-16 03:55:00,
2013-09-15 23:13:00,50.0,43.0,30.29,NNE,19,0.0,0.0,78,0.00,,,0.04,,2013-09-16 04:13:00,
2013-09-15 23:24:00,49.0,42.0,30.30,NNE,19,0.0,1.0,78,0.00,,,0.04,,2013-09-16 04:24:00,
2013-09-15 23:43:00,49.0,42.0,30.30,NNE,19,0.0,0.0,78,0.00,,,0.04,,2013-09-16 04:43:00,
2013-09-15 23:54:00,48.0,41.0,30.31,NNE,19,0.0,0.0,78,0.00,,,0.01,,2013-09-16 04:54:00,